Kiana, AK

3:36 PM AKDT on July 27, 2017 (GMT -0800)
Baker Memorial

Weather History for PAIK - February, 2014

Change the Weather History Date:

Wednesday, February 5, 2014

  Actual Average (PASK) Record (PASK)
Temperature  
Mean Temperature 24 °F -  
Max Temperature 21 °F 3 °F 35 °F (2003)
Min Temperature 21 °F -6 °F -49 °F (1999)
Degree Days  
Heating Degree Days 42    
Moisture  
Dew Point 23 °F    
Average Humidity 96    
Maximum Humidity 100    
Minimum Humidity 92    
Precipitation  
Precipitation 0.00 in - - ()
Sea Level Pressure  
Sea Level Pressure 30.73 in    
Wind  
Wind Speed 5 mph (SE)    
Max Wind Speed 10 mph    
Max Gust Speed -    
Visibility 6 miles    
Events Snow    
Averages and records for this station are not official NWS values.
T = Trace of Precipitation, MM = Missing Value Source: NWS Daily Summary

Daily Weather History Graph

Daily Weather History Graph

Search for Another Location

Airport or City:

Trip Planner

Search our weather history database for the weather conditions in past years. The results will help you decide how hot, cold, wet, or windy it might be!

Date:

Astronomy

Feb. 05, 2014 Rise Set
Actual Time 10:30 AM AKST 5:22 PM AKST
Civil Twilight 9:26 AM AKST 6:25 PM AKST
Nautical Twilight 8:21 AM AKST 7:31 PM AKST
Astronomical Twilight 7:20 AM AKST 8:33 PM AKST
Moon 10:39 AM AKST (2/5) 2:32 AM AKST (2/5)
Length of Visible Light 8h 59m
Length of Day
6h 51m
Waxing Crescent, 40% of the Moon is Illuminated
Feb 5
Waxing Crescent
Feb 6
First Quarter
Feb 14
Full
Feb 22
Last Quarter
Feb 28
New

Hourly Weather History & Observations

Time (AKST) Temp. Windchill Dew Point Humidity Pressure Visibility Wind Dir Wind Speed Gust Speed Precip Events Conditions
12:01 AM 23.0 °F 12.4 °F 21.0 °F 92% 30.75 in 10.0 mi East 10.4 mph - N/A   Overcast
12:48 AM 23.0 °F 15.8 °F 21.2 °F 93% 30.63 in 4.0 mi East 5.8 mph - 0.00 in Snow Light Snow
1:01 AM 23.0 °F 13.1 °F 21.9 °F 96% 30.76 in 4.0 mi East 9.2 mph - 0.00 in Snow Light Snow
1:29 AM 23.0 °F 13.9 °F 21.2 °F 93% 30.63 in 7.0 mi East 8.1 mph - 0.00 in   Overcast
1:41 AM 23.0 °F 13.1 °F 21.2 °F 93% 30.64 in 6.0 mi ESE 9.2 mph - 0.00 in Snow Light Snow
2:01 AM 23.0 °F 14.7 °F 21.9 °F 96% 30.78 in 8.0 mi ESE 6.9 mph - 0.00 in   Overcast
3:01 AM 23.0 °F 13.9 °F 21.2 °F 93% 30.65 in 4.0 mi East 8.1 mph - 0.00 in   Overcast
3:07 AM 23.0 °F 14.7 °F 21.9 °F 96% 30.79 in 4.0 mi East 6.9 mph - 0.00 in   Overcast
3:50 AM 23.0 °F 14.7 °F 21.2 °F 93% 30.66 in 10.0 mi East 6.9 mph - 0.00 in   Overcast
4:01 AM 23.0 °F 14.7 °F 21.9 °F 96% 30.80 in 9.0 mi ESE 6.9 mph - 0.00 in   Overcast
4:27 AM 23.0 °F 17.0 °F 21.2 °F 93% 30.67 in 4.0 mi East 4.6 mph - 0.00 in Snow Light Snow
4:41 AM 23.0 °F 14.7 °F 21.2 °F 93% 30.66 in 6.0 mi East 6.9 mph - 0.00 in   Overcast
5:01 AM 23.0 °F 15.8 °F 21.9 °F 96% 30.80 in 10.0 mi ESE 5.8 mph - 0.00 in   Overcast
5:28 AM 23.0 °F 18.4 °F 21.2 °F 93% 30.67 in 10.0 mi East 3.5 mph - N/A   Overcast
5:51 AM 23.0 °F 15.8 °F 21.2 °F 93% 30.66 in 10.0 mi East 5.8 mph - N/A   Overcast
6:01 AM 23.0 °F 17.0 °F 21.9 °F 96% 30.80 in 10.0 mi East 4.6 mph - N/A   Overcast
6:34 AM 23.0 °F 15.8 °F 21.2 °F 93% 30.67 in 5.0 mi ESE 5.8 mph - N/A   Overcast
7:01 AM 23.0 °F 15.8 °F 21.9 °F 96% 30.81 in 7.0 mi East 5.8 mph - N/A   Overcast
8:01 AM 23.0 °F 18.4 °F 23.0 °F 100% 30.82 in 4.0 mi East 3.5 mph - N/A   Overcast
9:01 AM 23.0 °F 17.0 °F 23.0 °F 100% 30.83 in 8.0 mi East 4.6 mph - N/A   Overcast
9:46 AM 23.0 °F - 21.2 °F 93% 30.70 in 10.0 mi Calm Calm - N/A   Overcast
10:01 AM 23.0 °F - 23.0 °F 100% 30.84 in 10.0 mi Calm Calm - N/A   Overcast
10:11 AM 23.0 °F - 21.2 °F 93% 30.70 in 7.0 mi Calm Calm - N/A   Overcast
10:47 AM 23.0 °F - 23.0 °F 100% 30.70 in 4.0 mi Calm Calm - 0.00 in Snow Light Snow
11:01 AM 24.1 °F - 23.0 °F 96% 30.85 in 7.0 mi Calm Calm - 0.00 in   Overcast
12:01 PM 24.1 °F 19.7 °F 23.0 °F 96% 30.84 in 6.0 mi East 3.5 mph - N/A   Overcast
12:57 PM 24.8 °F - 23.0 °F 93% 30.71 in 7.0 mi Calm Calm - 0.00 in   Overcast
1:01 PM 24.1 °F - 23.0 °F 96% 30.84 in 7.0 mi Calm Calm - 0.00 in   Overcast
1:12 PM 24.8 °F 20.5 °F 23.0 °F 93% 30.70 in 10.0 mi ENE 3.5 mph - N/A   Overcast
1:27 PM 24.8 °F - 23.0 °F 93% 30.70 in 6.0 mi Calm Calm - N/A   Overcast
1:44 PM 24.8 °F - 24.8 °F 100% 30.71 in 4.0 mi Calm Calm - N/A   Overcast
2:01 PM 25.0 °F - 25.0 °F 100% 30.84 in 3.0 mi Calm Calm - 0.00 in Snow Light Snow
2:16 PM 26.6 °F - 24.8 °F 93% 30.70 in 4.0 mi Calm Calm - 0.00 in Snow Light Snow
2:34 PM 24.8 °F - 24.8 °F 100% 30.70 in 2.0 mi Calm Calm - 0.00 in Snow Light Snow
2:52 PM 24.8 °F - 24.8 °F 100% 30.70 in 2.0 mi Calm Calm - 0.00 in Snow Light Snow
3:01 PM 25.0 °F - 24.1 °F 96% 30.84 in 2.5 mi Calm Calm - 0.00 in Snow Light Snow
3:44 PM 24.8 °F - 24.8 °F 100% 30.69 in 1.8 mi Calm Calm - 0.00 in Snow Light Snow
4:01 PM 25.0 °F - 25.0 °F 100% 30.82 in 1.2 mi Calm Calm - 0.00 in Snow Light Snow
4:54 PM 26.6 °F - 24.8 °F 93% 30.69 in 1.0 mi Calm Calm - 0.00 in Snow Light Snow
4:59 PM 26.6 °F - 24.8 °F 93% 30.69 in 1.2 mi Calm Calm - 0.00 in Snow Light Snow
5:01 PM 26.1 °F - 25.0 °F 96% 30.83 in 1.2 mi Calm Calm - 0.00 in Snow Light Snow
5:30 PM 26.6 °F - 24.8 °F 93% 30.67 in 2.5 mi Calm Calm - 0.00 in   Overcast
5:45 PM 24.8 °F - 24.8 °F 100% 30.67 in 1.5 mi Calm Calm - 0.00 in   Overcast
5:48 PM 24.8 °F - 24.8 °F 100% 30.67 in 1.2 mi Calm Calm - 0.00 in Snow Light Snow
5:52 PM 24.8 °F 20.5 °F 24.8 °F 100% 30.66 in 1.0 mi SSE 3.5 mph - 0.00 in Snow Light Snow
6:01 PM 24.8 °F 19.1 °F 24.8 °F 100% 30.66 in 1.2 mi SSW 4.6 mph - 0.00 in Snow Light Snow
6:39 PM 24.8 °F 20.5 °F 24.8 °F 100% 30.66 in 2.0 mi SSW 3.5 mph - 0.00 in Snow Light Snow
6:52 PM 24.8 °F 20.5 °F 24.8 °F 100% 30.67 in 4.0 mi SSW 3.5 mph - 0.00 in Snow Light Snow
7:01 PM 24.1 °F - 24.1 °F 100% 30.81 in 3.0 mi Calm Calm - 0.00 in Snow Light Snow
7:08 PM 24.8 °F - 23.0 °F 93% 30.67 in 2.5 mi Calm Calm - 0.00 in Snow Light Snow
8:01 PM 24.1 °F - 23.0 °F 96% 30.82 in 2.5 mi Calm Calm - 0.00 in Snow Light Snow
8:44 PM 23.0 °F - 21.2 °F 93% 30.67 in 3.0 mi Calm Calm - 0.00 in Snow Light Snow
9:01 PM 23.0 °F 18.4 °F 21.9 °F 96% 30.79 in 5.0 mi South 3.5 mph - 0.00 in Snow Light Snow
9:14 PM 21.2 °F 16.4 °F 21.2 °F 100% 30.66 in 9.0 mi SSW 3.5 mph - 0.00 in Snow Light Snow
9:57 PM 21.2 °F 14.9 °F 21.2 °F 100% 30.66 in 9.0 mi SSW 4.6 mph - 0.00 in   Overcast
10:01 PM 21.9 °F 15.7 °F 21.0 °F 96% 30.80 in 9.0 mi SSW 4.6 mph - 0.00 in   Overcast
11:01 PM 23.0 °F 15.8 °F 21.9 °F 96% 30.79 in 10.0 mi SSW 5.8 mph - N/A   Overcast
11:27 PM 21.2 °F 16.4 °F 21.2 °F 100% 30.66 in 10.0 mi SW 3.5 mph - 0.00 in   Overcast
11:42 PM 21.2 °F 14.9 °F 21.2 °F 100% 30.66 in 10.0 mi South 4.6 mph - 0.00 in   Overcast